SCP
-0 0 0 0 -0 0 -0 0 0 0 -0 0 -0 -0 -0 -0 -0 0 -0 -0 0 -0 -0 -0 -0 -0 -0 -0 -0 -0 -0 -0 0 0 -0 -0 -0 -0 -0 -0 -0 0 -0 -0 0 0 0 0 0
-0 -0 0 0 0 0 -0 0 0 0 0 -0 0 0 -0 -0 -0 -0 0 0 0 -0 -0 -0 -0 0 -0 -0 -0 -0 -0 0 0 0 0 -0 -0 -0 -0 -0 -0 -0 -0 -0 0 0 0 0 0
-0 -0 -0 0 0 0 0 0 0 0 -0 -0 -0 0 -0 -0 -0 -0 0 0 0 -0 -0 -0 0 0 -0 -0 -0 -0 0 0 0 0 0 0 -0 -0 0 0 -0 -0 0 0 0 0 0 0 0
-0 0 0 0 0 -0 0 0 0 0 0 0 0 0 -0 0 -0 -0 -0 -0 0 -0 -0 0 0 0 -0 -0 -0 -0 0 0 0 0 0 0 0 0 0 0 -0 -0 0 0 0 0 0 0 0
-0 -0 -0 -0 0 0 0 0 0 0 0 -0 0 -0 -0 0 0 -0 -0 0 -0 -0 -0 -0 0 -0 -0 -0 -0 -0 0 0 0 0 0 0 0 0 0 0 0 0 0 0 0 0 0 0 0
0 -0 -0 -0 0 0 0 0 0 0 0 0 -0 -0 0 0 -0 -0 -0 -0 0 -0 -0 -0 -0 0 -0 -0 -0 -0 -0 -0 0 0 0 0 0 0 0 0 0 0 0 0 0 0 0 0 0
0 0 0 -0 0 0 0 0 0 0 0 0 0 0 -0 0 -0 -0 -0 -0 0 -0 -0 -0 -0 -0 0 -0 -0 -0 -0 -0 -0 0 0 0 0 0 0 0 0 0 0 0 0 0 0 0 0
-0 0 0 0 0 0 -0 -0 0 0 0 -0 0 -0 -0 0 -0 -0 -0 0 -0 -0 -0 -0 -0 -0 -0 -0 -0 -0 -0 -0 -0 0 0 0 0 0 0 0 0 0 0 0 0 0 0 0 0
-0 0 0 0 -0 0 0 0 0 0 -0 0 0 0 -0 -0 -0 -0 -0 -0 -0 -0 -0 -0 -0 -0 -0 -0 -0 -0 -0 -0 -0 0 0 0 -0 -0 -0 0 0 0 0 0 0 0 0 -0 0
-0 0 0 0 0 0 0 0 0 0 0 0 -0 -0 -0 -0 -0 -0 -0 0 -0 -0 -0 -0 -0 -0 -0 -0 -0 -0 -0 -0 -0 -0 -0 0 0 -0 -0 0 0 0 0 0 0 0 0 0 0
-0 -0 0 -0 -0 -0 -0 -0 -0 0 0 0 -0 -0 -0 -0 -0 -0 -0 -0 0 -0 -0 -0 -0 -0 -0 -0 -0 -0 -0 -0 -0 0 -0 0 0 0 -0 0 0 0 -0 0 0 0 0 0 0
0 -0 0 0 0 0 -0 -0 0 -0 0 0 -0 -0 -0 -0 -0 -0 0 -0 -0 -0 -0 -0 -0 -0 -0 -0 -0 -0 -0 -0 -0 0 0 0 -0 -0 0 -0 0 0 0 0 0 0 0 0 0
-0 0 0 0 0 0 -0 0 -0 0 0 0 -0 -0 -0 -0 -0 0 0 -0 -0 -0 -0 -0 -0 -0 -0 -0 -0 -0 -0 -0 -0 0 0 0 0 -0 -0 0 0 0 0 0 0 0 0 0 0
0 0 0 0 0 0 -0 0 0 -0 0 -0 -0 -0 -0 -0 -0 0 0 0 -0 -0 -0 -0 -0 -0 -0 -0 -0 -0 -0 -0 -0 -0 -0 0 0 0 0 0 0 0 0 0 0 0 0 0 0
0 0 0 0 0 0 0 0 -0 -0 -0 0 -0 -0 -0 -0 0 -0 0 0 0 -0 -0 -0 -0 -0 -0 -0 -0 -0 -0 -0 -0 0 0 0 0 0 0 0 0 0 0 0 0 0 0 0 0
0 0 0 0 0 0 0 -0 0 -0 -0 -0 -0 -0 -0 -0 -0 -0 -0 -0 0 -0 -0 -0 -0 -0 -0 -0 -0 -0 -0 -0 0 0 0 0 0 0 0 0 0 0 0 0 0 0 0 0 0
0 0 0 0 -0 0 0 0 -0 0 -0 -0 -0 -0 -0 -0 -0 -0 -0 -0 0 -0 -0 -0 -0 -0 -0 0 -0 -0 -0 0 0 0 0 0 0 0 0 0 0 0 0 0 0 0 0 0 0
0 0 0 0 0 0 0 -0 0 0 0 -0 -0 -0 -0 -0 -0 -0 -0 -0 -0 0 0 0 -0 -0 -0 -0 -0 -0 -0 0 0 0 0 0 0 0 0 0 0 0 0 0 0 0 0 0 0
0 0 0 0 0 0 0 0 0 0 0 -0 -0 -0 -0 -0 -0 -0 -0 -0 -0 0 0 -0 0 -0 0 0 0 -0 -0 -0 -0 0 0 0 0 0 0 -0 0 -0 -0 0 0 0 0 0 0
0 0 0 0 0 0 0 0 0 0 0 -0 -0 -0 -0 -0 -0 -0 -0 -0 -0 0 0 0 0 0 0 0 0 0 -0 -0 -0 -0 -0 0 0 0 0 0 0 -0 -0 -0 -0 0 0 0 0
0 -0 0 0 0 0 0 0 0 0 0 0 0 0 0 -0 -0 -0 -0 -0 -0 0 0 0 0 0 0 0 0 0 0 0 -0 -0 -0 -0 -0 0 0 0 0 0 0 -0 -0 -0 0 0 0
0 0 0 0 0 0 0 0 0 -0 -0 -0 -0 -0 -0 -0 -0 -0 -0 -0 -0 -0 0 0 0 0 0 0 0 0 0 -0 -0 -0 -0 -0 -0 -0 0 0 0 0 0 0 -0 -0 -0 -0 0
0 0 0 0 0 0 0 0 0 0 -0 0 0 -0 0 0 -0 -0 -0 0 -0 0 0 0 0 0 0 0 0 0 -0 -0 -0 -0 -0 -0 -0 -0 -0 0 0 0 -0 -0 -0 -0 -0 -0 0
0 0 0 0 0 0 0 0 0 0 -0 -0 0 -0 0 0 0 -0 -0 -0 0 0 0 0 0 0 0 0 0 0 -0 -0 -0 -0 -0 -0 -0 -0 -0 -0 0 0 0 0 0 -0 -0 -0 0
0 0 0 0 0 0 0 0 0 0 0 0 -0 -0 -0 -0 0 0 0 -0 -0 -0 -0 0 0 0 0 0 0 0 0 -0 -0 -0 -0 0 -0 -0 0 -0 0 0 0 0 0 0 0 0 -0
0 0 0 0 0 0 0 0 0 0 0 0 0 0 0 0 0 0 0 -0 -0 -0 0 0 0 0 0 0 0 0 -0 -0 -0 -0 -0 0 0 -0 -0 -0 -0 -0 0 -0 0 0 -0 0 -0
0 0 0 0 0 0 0 0 0 0 0 0 0 0 0 -0 0 -0 0 0 0 0 0 0 0 0 0 0 0 0 -0 -0 -0 -0 -0 -0 -0 0 -0 -0 -0 -0 0 -0 -0 -0 0 0 -0
0 0 0 0 0 0 0 0 0 0 0 0 0 0 0 0 0 0 -0 0 0 0 0 0 0 0 0 0 0 0 0 0 -0 0 -0 -0 -0 -0 -0 0 -0 0 0 0 -0 -0 -0 -0 -0
0 0 0 0 0 0 0 0 0 0 0 0 0 0 0 0 0 0 0 0 0 0 0 0 0 0 0 0 0 0 0 0 0 0 0 -0 0 -0 -0 -0 0 0 0 0 0 0 -0 -0 -0
0 0 0 0 0 0 0 0 0 0 0 -0 0 0 0 0 0 0 0 0 0 0 0 0 0 0 0 0 0 0 0 0 0 0 0 0 -0 -0 -0 -0 -0 0 0 0 0 0 -0 0 0
Wind_Speed_500mb
16 16 12 5 5 2 3 9 4 10 10 29 55 14 13 13 4 6 49 69 61 56 50 45 39 33 30 31 30 28 25 22 22 24 23 24 22 23 22 23 24 22 22 22 23 25 27 28 31
21 15 7 5 3 3 7 5 5 3 28 51 40 35 10 7 8 39 78 64 59 54 48 42 35 29 30 31 28 25 24 22 24 23 23 23 19 19 19 21 24 23 20 22 25 25 26 27 30
22 7 4 2 2 3 7 4 8 23 51 48 11 20 9 5 18 73 71 66 56 50 44 40 36 32 30 29 27 24 22 23 24 23 25 22 20 22 22 29 24 26 22 25 27 27 27 28 30
20 8 8 1 4 5 9 17 32 34 20 14 33 15 13 7 68 52 70 66 54 45 42 38 33 30 27 26 26 23 24 24 24 26 24 24 23 21 26 30 28 26 28 29 29 28 31 28 27
14 8 4 4 2 4 17 27 27 19 9 17 7 15 30 12 26 68 69 59 50 45 41 37 31 26 26 26 27 26 27 27 26 26 25 26 23 24 25 30 31 31 30 31 32 35 33 28 24
4 4 3 3 9 13 17 12 16 6 18 26 29 31 14 23 54 69 64 53 45 44 40 35 30 27 27 27 26 28 29 29 28 25 25 26 26 26 28 30 31 32 32 31 37 40 32 28 23
3 2 4 4 5 9 8 22 27 14 24 10 28 10 33 43 69 64 56 49 44 43 39 33 32 25 25 28 29 29 30 30 26 25 24 23 25 27 29 30 33 33 32 32 37 38 32 28 22
6 3 5 5 5 6 5 8 25 12 11 35 24 11 28 69 65 55 52 48 46 42 36 34 34 30 27 29 29 31 31 31 29 27 27 25 26 26 29 31 32 33 33 32 38 37 31 21 20
11 4 7 6 11 13 14 2 20 13 34 10 7 32 66 72 64 61 58 50 45 39 35 33 31 28 28 30 30 32 34 32 32 31 29 27 28 28 29 32 33 33 32 33 37 32 26 24 21
10 5 10 4 11 20 29 12 16 10 12 18 40 70 68 71 66 66 62 54 49 43 37 34 31 29 31 33 33 34 37 34 33 33 29 23 26 29 30 31 34 33 34 36 38 34 29 22 13
13 9 9 4 18 47 37 26 9 4 8 8 64 78 77 72 66 61 56 49 50 43 38 35 33 31 33 33 36 35 36 32 32 28 26 22 22 27 32 32 35 35 35 37 33 30 27 17 13
7 17 13 16 23 23 24 34 23 20 7 10 57 71 83 78 71 65 58 50 49 44 38 37 36 35 34 36 37 38 38 31 30 25 21 21 22 26 26 30 35 34 38 39 30 24 24 17 15
7 11 22 25 36 18 23 16 11 14 14 9 61 66 63 72 70 65 53 45 48 45 42 41 41 41 39 41 42 39 31 27 24 19 20 14 18 21 23 24 28 23 34 34 26 29 26 19 13
9 20 26 36 35 23 18 17 15 18 12 19 56 64 64 62 70 66 60 51 51 50 46 47 49 47 38 37 36 30 31 28 25 17 15 12 11 14 15 17 26 25 24 28 36 31 26 19 11
31 15 8 22 32 14 24 5 11 26 30 36 61 62 60 60 61 65 64 54 57 51 54 49 50 45 37 33 32 31 28 22 20 16 11 11 12 10 17 15 24 20 34 36 34 28 24 21 19
4 7 5 5 23 21 17 8 21 36 48 43 58 65 62 68 67 67 68 58 62 53 54 56 53 44 34 28 28 28 26 21 17 12 4 14 13 9 13 18 27 25 30 26 35 23 21 17 18
13 2 2 4 24 10 17 7 14 34 47 47 54 68 64 67 63 69 74 66 64 59 54 55 52 41 32 23 32 29 26 22 18 15 9 11 19 18 16 21 26 31 33 30 27 24 21 19 14
3 5 5 4 14 6 17 16 8 30 33 54 58 60 69 74 76 79 80 71 68 61 56 49 54 42 36 28 30 29 28 22 21 17 14 15 20 19 17 21 23 27 28 24 20 21 21 17 13
6 5 4 7 14 13 29 18 22 33 20 48 53 64 67 77 72 79 85 79 76 67 63 56 54 50 49 45 42 35 30 24 21 19 17 19 21 15 20 17 18 19 20 21 22 19 16 12 11
4 2 10 13 8 13 5 9 12 25 28 50 60 64 70 68 77 77 90 88 82 76 68 63 56 53 58 53 45 34 30 25 22 23 17 16 24 18 17 19 18 17 17 27 24 16 13 17 13
6 7 7 12 4 11 15 6 3 5 14 22 39 61 65 68 73 80 92 97 92 85 73 66 62 54 48 61 54 45 38 35 33 30 27 20 26 22 16 26 20 19 20 23 20 16 15 18 11
10 14 13 9 5 3 5 4 11 17 19 24 34 56 59 66 62 81 91 105 100 90 75 68 65 59 45 45 63 62 50 47 40 33 30 22 22 22 20 26 22 19 29 27 23 23 20 23 17
18 11 15 10 6 6 5 8 7 17 22 36 54 46 61 59 67 82 93 103 103 95 85 74 70 64 52 46 57 66 59 48 41 36 36 27 24 25 25 25 23 25 22 29 27 30 25 27 24
13 7 11 9 8 5 8 9 8 12 40 35 45 53 55 70 65 66 86 93 105 100 92 81 77 71 60 50 53 69 65 54 50 42 40 37 27 27 26 21 21 25 27 26 31 33 27 29 26
9 12 5 4 4 9 9 5 5 18 21 32 42 64 73 74 78 74 77 89 103 108 101 92 83 77 68 60 58 64 71 57 56 48 41 42 35 30 33 28 20 22 28 27 29 34 30 31 28
6 12 10 10 8 7 11 10 2 12 31 41 39 55 53 70 79 75 87 95 100 106 108 100 92 84 75 66 57 61 67 67 58 54 45 43 37 30 25 31 27 21 24 27 28 30 34 32 30
7 10 1 13 8 7 4 5 10 45 31 40 43 37 61 76 86 85 90 93 99 102 107 108 98 90 80 69 58 58 62 68 68 60 49 46 43 39 33 27 27 26 25 25 27 25 31 37 35
14 5 8 7 8 7 7 9 7 35 40 41 43 47 36 74 81 87 84 101 97 100 102 103 103 94 85 75 66 57 59 64 68 68 60 53 47 49 44 37 35 31 30 24 25 27 29 33 39
13 11 9 5 6 10 6 4 9 21 22 29 49 75 32 63 58 70 79 80 90 92 96 97 103 102 94 84 71 67 62 62 66 71 70 61 48 49 45 39 38 38 38 36 31 30 29 34 34
32 10 7 7 10 3 5 2 13 16 25 43 59 71 75 41 12 25 45 60 59 73 84 91 97 101 99 89 80 76 69 64 66 72 75 72 58 53 52 47 44 45 40 46 43 34 34 33 35
Wind_Direction_500mb
140 155 179 256 264 210 255 261 239 122 113 154 156 165 162 86 158 186 145 160 162 156 156 156 154 153 155 154 144 137 137 132 129 124 120 118 119 125 134 139 145 142 145 143 138 130 128 123 117
149 152 204 299 327 35 282 243 267 136 149 153 166 122 65 88 113 141 149 159 162 158 157 157 154 153 158 157 150 143 139 133 128 124 120 118 118 114 123 126 131 144 141 152 148 141 135 133 123
146 159 285 344 42 264 268 236 190 123 126 143 116 93 80 71 139 140 153 157 161 158 156 158 152 150 140 143 149 145 140 131 131 121 123 119 116 112 117 125 119 128 132 141 146 145 140 135 121
159 227 247 200 227 235 253 331 137 126 114 120 114 77 71 232 139 150 154 158 159 157 158 162 162 152 148 149 148 145 137 135 129 126 122 124 124 122 116 126 121 118 123 129 137 135 128 123 121
186 253 262 283 359 39 288 274 133 133 112 124 108 87 118 139 154 150 154 159 162 157 162 163 157 150 152 146 140 136 139 136 131 128 126 124 123 117 118 119 118 116 118 129 129 126 123 122 116
238 281 281 313 43 64 349 335 350 266 113 110 106 106 102 152 157 151 156 161 163 159 162 158 151 155 153 150 147 142 139 139 133 132 127 126 124 119 125 124 120 120 122 128 129 130 129 123 117
253 293 309 292 98 75 311 315 306 132 124 108 133 92 135 152 156 153 159 163 165 163 166 155 154 159 150 146 142 142 141 137 133 131 125 126 129 129 127 123 120 121 127 133 138 137 131 128 118
240 163 290 257 168 116 153 325 333 148 83 133 123 156 156 157 155 156 160 165 167 168 167 160 157 159 150 141 144 141 142 140 137 128 122 123 128 135 129 126 121 122 126 134 146 138 135 127 118
232 281 282 267 151 123 137 319 5 353 150 133 6 161 156 155 157 157 160 166 168 170 170 168 166 162 153 149 146 144 145 142 133 125 120 120 126 133 134 129 127 125 127 137 148 142 141 133 118
202 179 229 283 106 150 151 119 351 10 169 36 102 138 154 161 163 163 166 170 173 173 172 169 166 162 156 156 152 152 146 142 136 127 124 130 127 134 135 132 134 133 132 138 146 153 140 134 122
203 211 188 130 124 143 145 143 149 210 262 82 149 147 164 168 170 169 168 171 176 172 171 169 163 161 157 155 151 151 146 149 141 145 136 134 136 139 140 139 141 138 137 140 146 146 149 146 140
259 231 188 152 154 162 162 139 162 193 147 182 171 160 167 172 177 176 175 177 176 177 168 165 163 160 158 156 151 148 149 140 137 138 145 141 139 139 139 140 140 138 143 149 146 160 160 157 117
239 271 202 193 164 165 153 158 169 137 213 138 170 167 164 175 180 181 177 179 176 174 167 166 160 157 156 153 149 145 153 151 141 139 149 144 158 147 140 142 152 151 146 165 171 160 157 157 125
232 241 259 191 173 166 159 153 170 170 224 155 169 174 176 180 187 183 186 179 179 171 162 160 158 156 152 154 159 158 159 152 146 136 159 163 159 189 181 179 158 162 148 146 155 156 162 160 153
273 268 307 154 156 164 148 94 210 174 186 187 176 177 178 181 197 191 188 181 169 168 160 157 152 156 160 156 156 159 166 158 150 138 143 161 185 134 144 152 161 151 158 152 152 164 171 156 125
299 52 34 186 156 169 164 232 203 164 172 173 177 178 182 187 198 201 196 189 179 168 168 166 165 164 170 185 195 184 188 183 173 163 198 177 156 156 129 134 161 139 151 155 157 160 162 154 138
3 152 54 119 211 159 187 247 223 166 155 171 180 180 184 185 197 203 196 196 188 181 176 178 176 177 176 190 189 185 203 199 198 201 225 192 170 149 130 132 136 145 146 154 157 171 167 162 153
177 45 20 71 171 197 202 250 270 172 180 180 186 188 186 188 192 200 198 199 196 187 188 192 186 186 182 187 195 192 190 197 196 213 210 190 174 155 156 141 142 144 153 157 150 134 147 164 169
141 178 283 225 202 200 209 216 217 168 182 181 187 197 194 197 198 203 202 200 201 195 195 197 194 189 189 195 200 201 199 188 187 199 199 191 190 178 179 180 165 161 159 153 161 163 168 190 182
263 331 294 291 275 171 315 274 206 174 195 189 193 197 201 197 199 198 201 199 200 195 195 198 198 197 199 206 206 206 206 202 200 190 191 202 193 194 191 185 177 166 169 170 172 163 174 177 181
260 181 232 223 7 28 115 43 177 168 238 240 208 211 211 202 197 197 197 199 199 197 197 200 200 201 207 210 210 210 209 207 207 201 198 197 188 197 201 189 189 198 183 176 177 172 181 176 171
262 199 234 246 71 253 150 235 243 214 236 260 237 216 213 212 205 202 194 200 202 202 204 204 204 204 214 213 211 217 214 215 212 208 205 195 193 190 194 191 198 194 190 193 207 192 189 184 191
236 214 193 202 151 81 303 87 259 176 233 240 237 224 225 221 212 208 205 206 205 206 205 207 207 209 212 215 214 214 215 218 214 215 215 213 207 199 196 207 212 205 198 207 209 203 203 206 208
236 129 52 62 107 62 251 121 290 185 222 238 237 229 224 219 215 210 211 205 208 209 209 208 210 212 213 214 217 211 215 217 216 217 223 221 215 207 203 200 216 217 214 207 206 207 212 207 208
92 68 353 31 57 191 241 75 257 268 283 244 229 214 218 217 217 211 205 201 208 211 211 212 212 214 215 214 216 214 217 219 218 219 223 227 220 211 208 211 220 216 206 211 210 213 217 210 212
325 144 151 179 170 185 235 203 118 337 7 354 322 249 229 218 219 216 212 206 212 215 214 214 215 216 216 216 217 218 218 222 222 222 226 225 226 222 226 222 221 219 213 211 208 218 221 220 217
310 51 269 96 19 73 261 304 280 351 355 357 344 328 224 214 218 213 210 209 213 215 217 217 217 219 220 219 220 219 221 222 223 222 224 227 236 239 242 234 222 218 221 218 220 226 220 223 222
78 331 64 12 128 154 293 76 348 351 345 345 357 334 275 224 214 213 211 210 214 217 218 219 221 222 223 222 224 224 222 224 221 222 225 229 240 238 240 237 232 231 233 233 229 228 226 224 226
11 14 5 108 98 152 164 22 51 2 350 9 6 10 347 212 212 216 213 216 216 216 217 222 223 222 224 224 228 229 228 225 225 224 226 229 234 233 231 231 237 245 246 246 246 239 235 238 232
76 58 71 86 326 23 113 166 358 337 357 44 29 25 35 71 176 186 201 211 210 215 220 222 224 225 227 228 230 231 232 231 227 227 225 227 230 230 230 234 239 247 261 253 250 252 240 240 235
Wind_Speed_850mb
16 16 12 5 5 2 3 9 4 10 10 29 55 14 13 13 4 6 49 69 61 56 50 45 39 33 30 31 30 28 25 22 22 24 23 24 22 23 22 23 24 22 22 22 23 25 27 28 31
21 15 7 5 3 3 7 5 5 3 28 51 40 35 10 7 8 39 78 64 59 54 48 42 35 29 30 31 28 25 24 22 24 23 23 23 19 19 19 21 24 23 20 22 25 25 26 27 30
22 7 4 2 2 3 7 4 8 23 51 48 11 20 9 5 18 73 71 66 56 50 44 40 36 32 30 29 27 24 22 23 24 23 25 22 20 22 22 29 24 26 22 25 27 27 27 28 30
20 8 8 1 4 5 9 17 32 34 20 14 33 15 13 7 68 52 70 66 54 45 42 38 33 30 27 26 26 23 24 24 24 26 24 24 23 21 26 30 28 26 28 29 29 28 31 28 27
14 8 4 4 2 4 17 27 27 19 9 17 7 15 30 12 26 68 69 59 50 45 41 37 31 26 26 26 27 26 27 27 26 26 25 26 23 24 25 30 31 31 30 31 32 35 33 28 24
4 4 3 3 9 13 17 12 16 6 18 26 29 31 14 23 54 69 64 53 45 44 40 35 30 27 27 27 26 28 29 29 28 25 25 26 26 26 28 30 31 32 32 31 37 40 32 28 23
3 2 4 4 5 9 8 22 27 14 24 10 28 10 33 43 69 64 56 49 44 43 39 33 32 25 25 28 29 29 30 30 26 25 24 23 25 27 29 30 33 33 32 32 37 38 32 28 22
6 3 5 5 5 6 5 8 25 12 11 35 24 11 28 69 65 55 52 48 46 42 36 34 34 30 27 29 29 31 31 31 29 27 27 25 26 26 29 31 32 33 33 32 38 37 31 21 20
11 4 7 6 11 13 14 2 20 13 34 10 7 32 66 72 64 61 58 50 45 39 35 33 31 28 28 30 30 32 34 32 32 31 29 27 28 28 29 32 33 33 32 33 37 32 26 24 21
10 5 10 4 11 20 29 12 16 10 12 18 40 70 68 71 66 66 62 54 49 43 37 34 31 29 31 33 33 34 37 34 33 33 29 23 26 29 30 31 34 33 34 36 38 34 29 22 13
13 9 9 4 18 47 37 26 9 4 8 8 64 78 77 72 66 61 56 49 50 43 38 35 33 31 33 33 36 35 36 32 32 28 26 22 22 27 32 32 35 35 35 37 33 30 27 17 13
7 17 13 16 23 23 24 34 23 20 7 10 57 71 83 78 71 65 58 50 49 44 38 37 36 35 34 36 37 38 38 31 30 25 21 21 22 26 26 30 35 34 38 39 30 24 24 17 15
7 11 22 25 36 18 23 16 11 14 14 9 61 66 63 72 70 65 53 45 48 45 42 41 41 41 39 41 42 39 31 27 24 19 20 14 18 21 23 24 28 23 34 34 26 29 26 19 13
9 20 26 36 35 23 18 17 15 18 12 19 56 64 64 62 70 66 60 51 51 50 46 47 49 47 38 37 36 30 31 28 25 17 15 12 11 14 15 17 26 25 24 28 36 31 26 19 11
31 15 8 22 32 14 24 5 11 26 30 36 61 62 60 60 61 65 64 54 57 51 54 49 50 45 37 33 32 31 28 22 20 16 11 11 12 10 17 15 24 20 34 36 34 28 24 21 19
4 7 5 5 23 21 17 8 21 36 48 43 58 65 62 68 67 67 68 58 62 53 54 56 53 44 34 28 28 28 26 21 17 12 4 14 13 9 13 18 27 25 30 26 35 23 21 17 18
13 2 2 4 24 10 17 7 14 34 47 47 54 68 64 67 63 69 74 66 64 59 54 55 52 41 32 23 32 29 26 22 18 15 9 11 19 18 16 21 26 31 33 30 27 24 21 19 14
3 5 5 4 14 6 17 16 8 30 33 54 58 60 69 74 76 79 80 71 68 61 56 49 54 42 36 28 30 29 28 22 21 17 14 15 20 19 17 21 23 27 28 24 20 21 21 17 13
6 5 4 7 14 13 29 18 22 33 20 48 53 64 67 77 72 79 85 79 76 67 63 56 54 50 49 45 42 35 30 24 21 19 17 19 21 15 20 17 18 19 20 21 22 19 16 12 11
4 2 10 13 8 13 5 9 12 25 28 50 60 64 70 68 77 77 90 88 82 76 68 63 56 53 58 53 45 34 30 25 22 23 17 16 24 18 17 19 18 17 17 27 24 16 13 17 13
6 7 7 12 4 11 15 6 3 5 14 22 39 61 65 68 73 80 92 97 92 85 73 66 62 54 48 61 54 45 38 35 33 30 27 20 26 22 16 26 20 19 20 23 20 16 15 18 11
10 14 13 9 5 3 5 4 11 17 19 24 34 56 59 66 62 81 91 105 100 90 75 68 65 59 45 45 63 62 50 47 40 33 30 22 22 22 20 26 22 19 29 27 23 23 20 23 17
18 11 15 10 6 6 5 8 7 17 22 36 54 46 61 59 67 82 93 103 103 95 85 74 70 64 52 46 57 66 59 48 41 36 36 27 24 25 25 25 23 25 22 29 27 30 25 27 24
13 7 11 9 8 5 8 9 8 12 40 35 45 53 55 70 65 66 86 93 105 100 92 81 77 71 60 50 53 69 65 54 50 42 40 37 27 27 26 21 21 25 27 26 31 33 27 29 26
9 12 5 4 4 9 9 5 5 18 21 32 42 64 73 74 78 74 77 89 103 108 101 92 83 77 68 60 58 64 71 57 56 48 41 42 35 30 33 28 20 22 28 27 29 34 30 31 28
6 12 10 10 8 7 11 10 2 12 31 41 39 55 53 70 79 75 87 95 100 106 108 100 92 84 75 66 57 61 67 67 58 54 45 43 37 30 25 31 27 21 24 27 28 30 34 32 30
7 10 1 13 8 7 4 5 10 45 31 40 43 37 61 76 86 85 90 93 99 102 107 108 98 90 80 69 58 58 62 68 68 60 49 46 43 39 33 27 27 26 25 25 27 25 31 37 35
14 5 8 7 8 7 7 9 7 35 40 41 43 47 36 74 81 87 84 101 97 100 102 103 103 94 85 75 66 57 59 64 68 68 60 53 47 49 44 37 35 31 30 24 25 27 29 33 39
13 11 9 5 6 10 6 4 9 21 22 29 49 75 32 63 58 70 79 80 90 92 96 97 103 102 94 84 71 67 62 62 66 71 70 61 48 49 45 39 38 38 38 36 31 30 29 34 34
32 10 7 7 10 3 5 2 13 16 25 43 59 71 75 41 12 25 45 60 59 73 84 91 97 101 99 89 80 76 69 64 66 72 75 72 58 53 52 47 44 45 40 46 43 34 34 33 35
Wind_Direction_850mb
140 155 179 256 264 210 255 261 239 122 113 154 156 165 162 86 158 186 145 160 162 156 156 156 154 153 155 154 144 137 137 132 129 124 120 118 119 125 134 139 145 142 145 143 138 130 128 123 117
149 152 204 299 327 35 282 243 267 136 149 153 166 122 65 88 113 141 149 159 162 158 157 157 154 153 158 157 150 143 139 133 128 124 120 118 118 114 123 126 131 144 141 152 148 141 135 133 123
146 159 285 344 42 264 268 236 190 123 126 143 116 93 80 71 139 140 153 157 161 158 156 158 152 150 140 143 149 145 140 131 131 121 123 119 116 112 117 125 119 128 132 141 146 145 140 135 121
159 227 247 200 227 235 253 331 137 126 114 120 114 77 71 232 139 150 154 158 159 157 158 162 162 152 148 149 148 145 137 135 129 126 122 124 124 122 116 126 121 118 123 129 137 135 128 123 121
186 253 262 283 359 39 288 274 133 133 112 124 108 87 118 139 154 150 154 159 162 157 162 163 157 150 152 146 140 136 139 136 131 128 126 124 123 117 118 119 118 116 118 129 129 126 123 122 116
238 281 281 313 43 64 349 335 350 266 113 110 106 106 102 152 157 151 156 161 163 159 162 158 151 155 153 150 147 142 139 139 133 132 127 126 124 119 125 124 120 120 122 128 129 130 129 123 117
253 293 309 292 98 75 311 315 306 132 124 108 133 92 135 152 156 153 159 163 165 163 166 155 154 159 150 146 142 142 141 137 133 131 125 126 129 129 127 123 120 121 127 133 138 137 131 128 118
240 163 290 257 168 116 153 325 333 148 83 133 123 156 156 157 155 156 160 165 167 168 167 160 157 159 150 141 144 141 142 140 137 128 122 123 128 135 129 126 121 122 126 134 146 138 135 127 118
232 281 282 267 151 123 137 319 5 353 150 133 6 161 156 155 157 157 160 166 168 170 170 168 166 162 153 149 146 144 145 142 133 125 120 120 126 133 134 129 127 125 127 137 148 142 141 133 118
202 179 229 283 106 150 151 119 351 10 169 36 102 138 154 161 163 163 166 170 173 173 172 169 166 162 156 156 152 152 146 142 136 127 124 130 127 134 135 132 134 133 132 138 146 153 140 134 122
203 211 188 130 124 143 145 143 149 210 262 82 149 147 164 168 170 169 168 171 176 172 171 169 163 161 157 155 151 151 146 149 141 145 136 134 136 139 140 139 141 138 137 140 146 146 149 146 140
259 231 188 152 154 162 162 139 162 193 147 182 171 160 167 172 177 176 175 177 176 177 168 165 163 160 158 156 151 148 149 140 137 138 145 141 139 139 139 140 140 138 143 149 146 160 160 157 117
239 271 202 193 164 165 153 158 169 137 213 138 170 167 164 175 180 181 177 179 176 174 167 166 160 157 156 153 149 145 153 151 141 139 149 144 158 147 140 142 152 151 146 165 171 160 157 157 125
232 241 259 191 173 166 159 153 170 170 224 155 169 174 176 180 187 183 186 179 179 171 162 160 158 156 152 154 159 158 159 152 146 136 159 163 159 189 181 179 158 162 148 146 155 156 162 160 153
273 268 307 154 156 164 148 94 210 174 186 187 176 177 178 181 197 191 188 181 169 168 160 157 152 156 160 156 156 159 166 158 150 138 143 161 185 134 144 152 161 151 158 152 152 164 171 156 125
299 52 34 186 156 169 164 232 203 164 172 173 177 178 182 187 198 201 196 189 179 168 168 166 165 164 170 185 195 184 188 183 173 163 198 177 156 156 129 134 161 139 151 155 157 160 162 154 138
3 152 54 119 211 159 187 247 223 166 155 171 180 180 184 185 197 203 196 196 188 181 176 178 176 177 176 190 189 185 203 199 198 201 225 192 170 149 130 132 136 145 146 154 157 171 167 162 153
177 45 20 71 171 197 202 250 270 172 180 180 186 188 186 188 192 200 198 199 196 187 188 192 186 186 182 187 195 192 190 197 196 213 210 190 174 155 156 141 142 144 153 157 150 134 147 164 169
141 178 283 225 202 200 209 216 217 168 182 181 187 197 194 197 198 203 202 200 201 195 195 197 194 189 189 195 200 201 199 188 187 199 199 191 190 178 179 180 165 161 159 153 161 163 168 190 182
263 331 294 291 275 171 315 274 206 174 195 189 193 197 201 197 199 198 201 199 200 195 195 198 198 197 199 206 206 206 206 202 200 190 191 202 193 194 191 185 177 166 169 170 172 163 174 177 181
260 181 232 223 7 28 115 43 177 168 238 240 208 211 211 202 197 197 197 199 199 197 197 200 200 201 207 210 210 210 209 207 207 201 198 197 188 197 201 189 189 198 183 176 177 172 181 176 171
262 199 234 246 71 253 150 235 243 214 236 260 237 216 213 212 205 202 194 200 202 202 204 204 204 204 214 213 211 217 214 215 212 208 205 195 193 190 194 191 198 194 190 193 207 192 189 184 191
236 214 193 202 151 81 303 87 259 176 233 240 237 224 225 221 212 208 205 206 205 206 205 207 207 209 212 215 214 214 215 218 214 215 215 213 207 199 196 207 212 205 198 207 209 203 203 206 208
236 129 52 62 107 62 251 121 290 185 222 238 237 229 224 219 215 210 211 205 208 209 209 208 210 212 213 214 217 211 215 217 216 217 223 221 215 207 203 200 216 217 214 207 206 207 212 207 208
92 68 353 31 57 191 241 75 257 268 283 244 229 214 218 217 217 211 205 201 208 211 211 212 212 214 215 214 216 214 217 219 218 219 223 227 220 211 208 211 220 216 206 211 210 213 217 210 212
325 144 151 179 170 185 235 203 118 337 7 354 322 249 229 218 219 216 212 206 212 215 214 214 215 216 216 216 217 218 218 222 222 222 226 225 226 222 226 222 221 219 213 211 208 218 221 220 217
310 51 269 96 19 73 261 304 280 351 355 357 344 328 224 214 218 213 210 209 213 215 217 217 217 219 220 219 220 219 221 222 223 222 224 227 236 239 242 234 222 218 221 218 220 226 220 223 222
78 331 64 12 128 154 293 76 348 351 345 345 357 334 275 224 214 213 211 210 214 217 218 219 221 222 223 222 224 224 222 224 221 222 225 229 240 238 240 237 232 231 233 233 229 228 226 224 226
11 14 5 108 98 152 164 22 51 2 350 9 6 10 347 212 212 216 213 216 216 216 217 222 223 222 224 224 228 229 228 225 225 224 226 229 234 233 231 231 237 245 246 246 246 239 235 238 232
76 58 71 86 326 23 113 166 358 337 357 44 29 25 35 71 176 186 201 211 210 215 220 222 224 225 227 228 230 231 232 231 227 227 225 227 230 230 230 234 239 247 261 253 250 252 240 240 235